Theta_e
349 348 350 351 352 350 354 356 355 348 355 366 365 357 344 347 342 334 333 337 334 337 333 335 342 348 350 347 350 349 348 351 350 346 343 346 351 343 341 342 342 344 346 346 347 348 348 347 346 346 346 346 346 346 345 345 344 344 343 343 343 344 343 344 344 343 343 344 344 344 345 345 345 346
353 350 349 350 348 352 350 352 351 364 358 361 365 358 354 353 343 346 335 335 339 345 336 333 344 352 349 350 353 351 352 351 350 347 346 347 345 344 341 342 343 344 345 344 343 345 345 345 345 344 343 343 342 342 342 342 342 342 342 343 344 344 343 343 343 343 344 344 344 344 344 345 345 344
354 352 349 350 348 350 348 352 347 359 354 356 357 354 357 350 349 345 346 339 347 341 350 345 341 347 346 346 349 350 350 354 349 349 348 348 354 346 344 343 343 343 343 342 341 340 339 339 341 340 340 340 340 340 341 341 341 342 342 342 342 343 343 343 342 342 343 343 343 343 343 343 343 343
355 354 351 351 350 350 351 350 352 355 354 353 353 353 350 353 350 348 346 340 341 347 343 351 344 347 345 350 345 345 347 355 352 347 349 356 350 349 347 345 342 341 340 340 339 337 336 337 338 338 339 340 340 341 341 341 341 341 341 341 341 341 341 341 340 340 341 340 340 341 341 341 341 341
355 355 352 351 353 353 349 349 350 350 353 351 352 352 351 348 349 347 344 340 339 347 354 352 347 343 346 344 349 348 346 351 346 350 349 355 349 348 348 346 343 340 338 336 337 336 336 336 337 338 339 340 340 340 341 341 340 340 339 338 336 336 336 336 335 335 336 337 337 338 338 339 339 339
355 355 354 352 352 352 350 349 347 348 346 348 346 347 347 345 346 348 344 342 341 339 346 349 352 353 347 344 345 347 343 349 348 346 347 352 348 347 347 346 341 340 337 334 333 335 334 334 335 336 338 339 339 340 340 338 336 337 336 332 332 332 331 331 332 333 334 335 335 336 336 337 337 337
356 355 354 353 351 352 350 349 348 347 347 345 345 345 344 344 345 347 347 344 340 339 342 348 346 344 348 348 345 345 348 349 351 346 345 343 346 348 348 345 344 339 336 333 333 333 333 334 334 334 337 336 336 336 334 333 332 331 329 328 330 330 329 329 330 332 332 332 332 332 332 333 333 333
357 354 354 352 351 350 350 349 349 349 348 348 348 346 345 345 345 347 347 346 344 342 338 345 343 346 342 346 350 346 348 344 346 348 348 346 343 343 346 344 343 342 335 333 333 332 332 331 331 331 332 331 330 329 328 328 328 327 326 326 326 326 325 325 326 328 328 327 328 329 329 329 329 328
358 356 354 354 353 351 349 350 348 348 348 347 348 347 347 345 346 347 348 346 345 344 342 342 346 350 349 348 347 347 345 345 345 347 346 346 345 346 345 345 344 344 332 333 332 331 331 331 330 330 329 329 329 328 327 326 326 325 325 324 324 325 325 324 323 324 325 324 325 324 325 325 327 327
359 358 356 355 354 352 349 349 349 348 347 347 345 346 347 346 346 346 347 349 345 343 343 343 344 347 346 346 347 345 344 344 341 342 345 346 346 347 344 342 343 352 339 337 336 332 331 331 329 330 330 330 329 328 327 325 324 323 322 320 319 321 321 321 322 322 322 322 323 324 324 324 325 325
360 359 358 357 356 354 352 350 349 348 347 347 345 346 347 346 345 344 344 347 347 343 341 342 342 343 346 346 345 347 347 343 344 341 339 340 343 345 345 344 344 348 341 339 338 337 336 333 331 325 325 328 328 328 327 325 323 322 320 318 317 318 317 318 319 320 320 320 320 319 318 318 321 323
360 359 359 358 358 357 355 352 351 350 348 347 346 346 347 347 345 343 343 343 343 344 343 341 340 339 341 345 345 350 346 343 341 343 342 337 339 341 344 344 344 346 342 341 339 336 334 332 331 326 326 328 329 328 328 328 328 325 321 320 321 321 319 318 319 319 318 317 316 316 316 315 317 319
362 361 359 359 358 359 355 348 348 348 346 348 345 347 347 346 345 344 343 343 341 341 342 342 343 341 337 340 343 340 341 338 338 342 341 340 343 343 343 345 347 348 346 343 341 338 337 336 337 336 334 333 331 330 330 331 332 328 323 322 323 324 322 320 319 319 318 317 317 316 315 316 317 319
362 361 361 360 352 347 344 344 342 342 342 342 346 348 348 346 345 344 342 342 342 341 340 340 341 339 338 336 340 341 341 344 344 343 343 338 340 343 342 344 347 349 346 345 343 343 341 339 341 339 335 337 339 335 333 331 331 331 327 326 324 324 323 321 320 319 318 317 316 316 314 315 317 317
361 361 361 361 356 348 343 346 339 340 341 341 341 345 345 345 347 345 343 342 343 341 340 341 340 339 338 338 339 340 342 343 343 341 343 342 340 338 335 333 346 351 348 345 342 343 346 343 340 341 339 339 339 339 338 335 333 329 328 327 325 324 323 322 322 320 318 316 316 315 314 315 315 315
362 361 361 361 361 359 357 355 350 342 338 339 339 341 344 343 343 344 346 343 342 343 341 340 340 340 340 340 339 339 340 341 342 343 342 341 340 338 337 336 336 346 349 344 341 340 345 344 340 339 339 340 338 337 335 331 331 328 327 326 325 324 323 322 323 323 321 320 319 320 319 318 318 317
361 361 360 360 360 360 344 351 356 351 347 337 336 337 341 343 340 337 339 344 347 346 344 341 341 341 342 341 341 342 341 344 341 341 340 340 340 340 339 339 340 348 348 344 341 338 340 341 337 335 338 338 339 336 328 328 328 326 325 325 324 323 322 322 322 321 320 319 318 317 316 315 315 314
360 361 360 358 358 359 358 356 357 355 352 349 346 345 346 349 348 339 336 337 342 347 347 345 342 344 346 343 344 346 345 344 341 340 338 340 339 339 339 343 345 349 347 342 340 336 338 339 337 334 336 339 340 333 327 324 325 325 323 323 322 322 321 319 319 318 318 317 316 315 313 312 311 311
361 361 362 360 358 358 359 359 355 356 354 352 349 347 347 349 351 350 347 346 347 348 349 349 347 347 348 347 348 350 349 345 347 345 342 342 342 344 346 346 346 346 346 345 340 331 335 337 334 333 333 334 335 337 324 323 324 323 321 321 321 320 317 317 317 316 315 315 314 313 312 311 310 309
363 362 362 361 360 358 359 348 336 346 356 354 350 348 348 348 349 351 345 341 343 349 350 351 351 350 351 344 350 350 350 349 349 349 348 347 345 342 340 337 340 339 344 344 338 333 332 336 332 335 339 339 333 337 329 322 322 321 320 320 319 317 315 315 315 314 314 314 314 313 311 308 307 306
364 364 363 362 361 360 359 346 331 334 342 355 352 349 348 348 348 348 351 338 333 335 334 334 336 337 337 331 330 330 333 346 345 343 339 338 340 338 335 335 336 335 337 341 340 334 331 334 333 331 337 336 333 334 331 331 321 320 318 318 317 315 314 313 312 312 313 313 312 312 312 309 308 309
365 364 350 360 362 361 361 338 327 329 340 355 354 351 349 347 347 347 349 350 344 330 331 331 332 332 330 330 330 331 330 332 339 342 336 339 338 336 335 332 333 334 335 337 339 334 331 335 333 329 332 333 332 330 327 328 329 320 315 314 316 315 314 313 311 312 312 312 312 311 310 309 308 310
365 366 356 346 351 355 354 333 325 326 337 355 355 353 350 347 346 347 349 349 347 344 341 341 340 340 334 339 342 341 333 337 347 344 342 340 337 333 334 334 333 331 333 337 340 332 332 332 332 326 324 320 327 327 334 334 328 323 322 321 318 315 314 313 311 310 310 310 311 311 310 308 309 312
361 363 365 353 331 332 335 328 321 322 326 351 356 355 351 348 346 350 349 349 349 345 343 343 343 343 342 342 343 345 341 342 347 345 344 342 339 337 334 333 333 330 331 337 339 333 334 332 327 328 324 320 318 329 332 328 329 327 325 325 322 319 317 316 313 311 309 309 309 309 309 308 309 312
359 360 361 363 337 326 326 324 318 318 320 333 355 355 353 351 349 346 349 348 344 346 344 342 343 342 342 342 342 343 340 340 343 343 343 342 340 338 334 332 331 331 333 339 337 335 332 328 326 324 327 322 323 322 324 327 329 326 327 325 322 322 322 321 318 318 313 309 308 307 307 308 308 310
360 360 361 363 346 324 323 322 316 315 318 323 349 354 337 335 334 348 350 350 347 347 343 342 341 340 340 339 340 341 341 340 340 342 341 341 341 341 339 337 333 330 330 338 331 336 332 328 326 323 326 321 321 321 319 322 327 327 325 323 321 321 321 318 319 320 321 321 320 314 312 310 310 309
360 362 362 360 343 323 319 318 317 314 315 318 336 331 328 329 328 338 349 348 347 346 342 341 340 338 339 338 338 338 340 340 340 340 340 340 340 341 340 340 343 344 331 332 337 335 333 330 334 325 323 322 320 319 319 317 318 326 324 322 320 319 322 318 318 319 319 319 321 314 311 309 310 311
362 362 362 357 337 319 312 314 317 315 315 326 321 323 325 326 327 345 348 346 346 344 341 339 339 339 339 339 338 338 339 341 340 340 340 340 340 340 340 342 344 333 332 330 331 332 332 328 328 330 327 323 319 316 315 319 320 319 316 321 318 315 317 318 316 319 321 320 319 318 320 318 321 319
361 345 334 331 327 323 312 314 316 316 315 316 320 320 323 329 339 345 348 347 346 343 341 339 340 340 339 340 339 341 340 341 341 339 339 340 340 340 340 340 339 333 333 331 330 330 329 329 327 328 326 324 320 320 318 316 318 318 318 315 312 316 317 320 319 315 315 315 317 319 316 316 320 321
334 331 327 323 322 320 317 324 327 329 328 318 319 321 323 336 342 345 347 347 344 342 341 340 339 340 341 340 341 341 341 339 338 337 336 336 335 336 336 334 331 332 331 331 329 330 330 329 329 327 326 325 322 320 320 318 317 318 319 316 314 317 315 312 311 314 319 318 318 319 322 322 320 319
335 338 335 338 331 332 323 322 323 325 326 325 322 326 329 337 344 346 347 347 346 343 342 340 340 341 342 342 340 339 338 336 337 338 335 333 332 333 333 329 328 328 330 330 329 331 330 330 329 328 323 323 322 320 321 321 317 317 315 315 314 307 314 316 316 315 314 315 320 321 322 320 317 319
338 341 331 333 342 343 337 330 331 332 335 334 330 329 332 337 341 341 338 341 347 346 345 343 342 341 340 338 338 338 337 336 336 336 333 331 330 330 330 326 324 326 327 328 328 331 334 329 328 327 325 323 319 321 321 320 317 316 315 315 315 313 314 311 312 314 319 321 319 316 317 316 315 317
337 339 341 341 343 343 339 338 336 336 336 337 336 334 336 338 341 343 344 343 344 345 343 341 340 339 339 337 337 336 335 335 334 333 331 331 329 328 328 325 324 324 323 323 325 326 328 329 330 326 325 325 324 322 319 316 316 317 314 313 312 311 312 314 315 315 320 319 316 316 314 318 318 317
323 332 337 340 341 342 342 341 339 339 338 338 338 336 329 336 339 341 342 343 343 343 342 341 338 338 337 336 335 335 333 333 333 331 328 329 328 326 325 324 324 324 324 323 324 324 325 326 327 328 328 327 327 324 321 317 315 317 316 314 314 313 316 318 317 319 319 317 315 312 312 312 316 318
326 330 333 336 340 341 343 342 341 340 340 339 339 338 336 337 337 336 341 342 341 340 340 339 338 336 335 334 334 333 331 331 331 330 329 329 327 325 325 323 322 323 323 322 321 325 325 324 323 321 322 322 321 322 327 323 318 317 317 315 315 316 317 319 318 318 316 316 316 312 312 313 313 316
319 324 329 333 336 339 340 341 341 341 341 341 341 339 336 336 337 338 339 340 342 340 339 336 335 334 334 334 333 332 330 328 329 328 327 327 326 325 324 323 322 322 323 322 321 322 325 323 321 317 315 315 314 313 316 324 323 319 315 314 316 317 318 317 318 317 316 314 314 314 312 311 311 314
319 321 324 326 330 334 336 339 341 341 340 340 340 341 339 337 337 339 340 336 341 338 336 335 334 334 333 332 330 328 328 328 328 326 324 325 325 324 323 322 322 322 322 322 322 322 324 321 320 317 315 313 311 310 312 324 320 319 318 315 316 318 316 318 317 314 315 315 313 314 313 312 311 311
322 324 324 325 327 328 330 333 338 339 339 340 340 340 339 340 340 340 342 341 338 335 333 334 333 332 333 330 330 330 329 329 327 325 324 324 323 322 322 321 321 322 322 322 322 321 323 321 319 317 315 312 310 310 309 318 322 317 315 319 316 317 318 315 313 311 313 317 315 315 315 312 311 312
322 323 324 324 326 326 327 327 330 333 337 339 339 339 340 340 340 341 339 339 338 335 334 335 333 331 331 331 330 328 327 326 324 324 324 324 323 322 321 321 321 322 322 321 321 322 322 319 318 318 316 313 311 311 311 314 318 320 320 311 317 317 316 313 310 311 312 312 313 316 316 316 316 314
329 326 326 326 325 326 326 327 327 329 330 335 338 340 340 338 339 339 339 336 336 335 335 334 332 328 331 331 328 328 326 326 325 324 323 323 323 322 322 321 321 321 320 320 319 319 319 318 319 318 317 317 318 324 313 314 314 315 316 314 308 315 316 313 313 312 312 313 315 312 310 311 309 312
332 332 332 332 330 328 327 327 327 327 328 330 334 331 338 340 339 338 338 337 334 334 334 333 331 330 331 330 328 326 324 324 324 324 323 323 321 321 321 319 320 321 319 318 319 318 317 319 324 321 326 322 320 316 315 309 307 308 310 312 307 307 310 312 313 313 313 314 313 311 308 306 306 309
332 332 333 332 331 330 330 329 328 328 328 329 330 332 335 337 338 330 335 332 334 333 333 332 331 329 329 328 327 323 323 322 323 323 322 322 321 320 319 320 319 320 319 318 317 318 322 325 325 322 321 316 313 309 307 306 305 308 311 316 320 313 307 308 309 311 316 314 312 311 308 307 309 307
331 332 331 331 332 332 331 329 329 329 328 329 329 329 330 333 335 335 334 333 333 332 332 330 330 329 327 326 325 324 323 322 323 323 323 322 322 321 320 320 320 320 319 319 320 320 318 318 319 317 316 314 313 310 306 307 309 310 313 313 312 316 322 313 308 308 309 310 311 313 312 309 306 302
331 331 331 332 332 332 333 333 333 333 331 330 330 329 329 330 331 334 334 332 332 331 330 329 328 326 325 324 324 324 323 323 324 323 323 323 323 322 321 320 319 319 319 318 317 317 316 315 315 314 312 311 312 309 307 309 309 310 310 312 316 315 314 316 318 313 311 310 310 309 311 310 311 310
331 331 331 331 331 330 330 329 329 330 332 332 331 331 330 329 329 332 330 329 328 328 328 326 325 324 323 323 323 322 323 319 321 323 323 322 322 321 321 320 318 318 317 316 314 314 315 313 313 313 313 312 312 310 311 311 311 311 312 312 310 311 312 313 314 313 313 311 313 312 310 310 310 309
Wind_Speed
7 6 6 6 5 5 5 3 3 5 2 1 1 4 5 2 2 2 3 4 5 6 8 5 5 7 7 7 5 5 5 6 10 7 6 5 5 12 15 15 13 12 12 11 10 9 9 8 8 8 8 8 9 8 7 7 7 7 7 8 8 8 8 7 7 8 8 9 8 8 8 9 9 10
6 6 7 6 6 4 4 5 3 2 3 2 1 2 3 3 4 1 4 4 3 3 6 4 4 4 6 6 4 3 4 8 11 6 7 6 5 11 16 14 13 12 12 11 10 9 8 8 7 7 7 7 7 6 7 7 7 8 7 7 7 7 7 6 7 7 8 8 9 8 9 9 10 10
7 6 7 7 6 5 5 4 4 2 4 3 3 2 1 4 3 3 1 1 3 4 2 2 6 6 6 5 4 4 4 8 11 6 5 4 4 9 11 14 13 12 11 10 10 9 9 8 8 7 7 7 6 7 8 8 8 8 7 7 7 7 7 7 6 7 7 8 8 7 8 9 9 10
7 7 7 6 7 6 4 4 4 3 4 5 4 3 5 3 4 3 3 3 4 3 2 1 5 8 7 5 7 6 5 8 13 5 4 2 6 5 6 11 12 12 11 11 10 11 10 10 9 8 8 7 8 8 8 8 7 6 6 6 6 6 6 5 6 7 7 7 6 6 7 8 9 10
8 9 8 7 7 6 6 6 5 4 4 5 5 4 5 5 5 5 5 5 5 3 2 2 4 7 8 7 5 6 6 5 7 6 4 5 5 5 5 6 12 13 12 12 13 12 12 11 11 10 8 7 8 8 8 8 6 6 5 4 4 5 5 4 4 5 6 5 6 6 6 7 7 7
9 8 9 9 8 8 8 7 7 5 5 6 6 6 6 6 6 6 6 6 5 6 4 3 2 2 8 6 7 5 7 5 6 5 4 5 6 6 6 6 7 15 15 15 14 12 12 11 11 11 9 8 8 8 8 7 6 5 5 4 5 5 4 4 4 4 4 5 5 5 5 6 6 6
10 10 10 10 9 7 9 9 8 7 7 6 7 7 7 7 7 6 7 5 6 6 5 4 3 4 3 3 7 6 5 4 7 6 6 6 6 5 6 5 5 15 17 16 14 14 13 12 12 10 9 9 9 9 9 7 5 5 5 5 5 5 4 4 4 5 5 4 4 5 5 5 5 5
11 11 10 11 11 9 9 9 9 8 8 7 7 8 7 7 7 6 7 7 6 5 6 4 6 4 6 3 4 7 5 6 6 7 6 6 6 5 6 6 5 9 18 16 16 15 13 12 12 11 10 10 9 8 7 6 5 6 6 6 6 6 5 5 5 5 5 5 5 5 5 5 5 5
11 11 12 11 11 11 10 10 10 9 10 9 7 8 8 8 7 6 7 9 7 6 6 5 5 4 4 5 5 5 5 6 5 4 5 6 6 6 5 4 7 9 18 17 15 14 13 12 11 11 10 10 9 7 7 7 7 7 8 8 8 6 5 5 5 5 6 6 5 5 5 5 6 6
12 11 12 11 12 12 12 12 11 11 12 10 10 9 9 8 7 7 6 7 9 8 7 5 4 5 4 4 4 6 6 5 6 5 4 4 4 5 6 6 5 2 5 4 6 8 9 10 12 12 11 11 9 8 8 8 9 10 10 10 9 7 6 6 6 6 6 6 5 5 5 5 5 6
13 13 12 12 12 13 13 13 13 12 12 12 12 11 10 9 9 9 8 7 8 9 8 7 6 5 5 5 5 5 6 6 5 6 6 6 5 4 5 5 5 3 5 8 11 10 10 11 9 11 12 11 10 10 10 10 11 11 11 11 9 8 7 7 7 6 6 6 6 6 6 6 6 7
14 14 14 14 14 14 14 14 13 13 13 11 11 11 10 9 10 10 9 8 8 8 8 8 7 7 6 5 5 3 5 5 6 6 5 7 6 6 6 6 6 4 6 5 6 7 8 8 9 11 12 12 11 13 11 12 12 13 12 11 9 8 8 8 7 6 6 7 7 7 7 8 8 8
14 14 15 15 15 15 17 20 17 16 14 12 12 11 11 10 11 10 9 9 9 8 8 8 7 7 8 7 6 7 7 9 9 5 5 5 5 6 6 6 6 5 5 6 6 7 7 6 6 5 5 7 11 12 13 10 14 14 13 12 10 10 9 8 7 7 7 8 8 8 8 8 8 8
15 15 15 15 19 19 20 20 20 19 19 18 14 12 12 12 11 11 10 9 9 9 9 9 8 9 9 9 8 8 8 6 5 6 6 7 6 3 5 5 5 6 6 4 5 5 7 8 6 6 6 7 9 8 7 9 9 11 14 15 12 10 10 9 7 8 8 8 8 8 9 9 9 9
14 14 15 13 16 18 18 19 21 20 20 20 19 18 17 14 13 12 12 10 9 10 10 9 9 10 9 9 8 8 7 8 8 8 6 6 6 6 6 6 2 4 7 6 4 4 3 3 4 4 5 6 7 8 8 14 16 12 11 12 11 11 10 8 8 8 8 9 9 9 9 9 9 9
13 14 14 14 12 13 16 16 16 19 20 20 19 19 18 18 18 16 13 12 11 11 10 10 11 10 10 9 8 8 9 8 8 8 8 7 7 7 7 6 6 4 7 6 6 6 3 3 5 5 6 7 6 7 6 10 12 12 11 11 12 11 10 9 8 8 8 8 9 9 10 10 10 10
14 13 13 13 13 11 18 17 16 16 17 19 21 20 19 19 20 19 18 17 14 10 11 12 11 12 9 10 10 10 8 6 9 8 9 9 8 7 7 7 5 4 7 6 5 6 4 5 5 6 8 6 6 3 8 12 13 13 13 13 13 12 10 10 9 9 9 9 9 10 11 11 10 10
15 15 14 13 12 11 11 13 15 15 16 15 14 14 14 13 17 19 21 20 20 16 12 11 12 11 10 10 9 10 9 8 9 10 10 9 8 8 9 6 4 4 6 8 5 4 5 4 5 7 8 7 6 6 12 16 15 14 15 14 13 12 11 11 10 9 9 10 10 11 11 11 11 11
16 15 14 14 13 12 11 10 15 15 16 16 16 16 16 17 15 14 14 16 14 14 12 12 12 10 11 11 9 8 9 10 8 9 10 10 8 6 4 3 3 5 6 6 6 7 4 4 6 6 6 4 3 3 10 14 15 15 14 13 13 13 12 10 10 10 10 11 11 12 12 12 12 12
14 14 14 13 13 13 13 14 19 18 15 15 17 17 17 16 16 15 17 20 18 17 15 12 10 9 11 12 10 9 8 8 7 6 6 6 5 6 6 6 6 5 7 8 7 4 5 5 6 4 3 3 2 5 7 12 13 13 14 14 13 12 12 12 12 12 12 12 13 13 13 13 14 13
13 13 14 14 13 14 14 15 19 20 18 14 16 16 17 16 15 16 13 17 20 21 20 18 15 11 11 9 8 9 15 10 8 7 7 7 7 6 6 6 6 7 6 9 8 7 6 5 5 5 3 2 2 1 4 6 11 15 13 12 13 13 14 13 13 12 13 13 14 14 14 15 14 15
11 14 19 18 15 14 14 17 20 21 19 15 15 16 17 17 17 16 14 10 12 19 19 17 16 14 9 9 9 9 12 14 13 10 10 9 7 7 7 6 7 6 6 6 10 6 7 5 5 4 2 2 2 2 4 5 5 10 10 15 16 15 14 14 13 13 14 14 14 14 16 16 14 9
11 12 13 19 19 16 15 18 20 23 21 17 16 15 16 19 20 18 14 13 13 13 11 11 11 10 8 6 5 5 9 12 13 10 9 8 7 7 7 8 5 5 6 6 10 8 6 6 5 6 3 3 3 5 4 5 5 5 6 7 9 12 13 14 14 14 14 14 15 16 16 16 12 6
12 13 11 13 19 20 18 18 21 24 27 21 17 15 17 18 20 15 14 16 14 15 18 17 15 15 10 9 7 6 6 7 8 8 8 8 6 5 5 6 7 6 5 4 12 10 6 7 5 6 5 4 3 1 2 0 2 4 6 7 7 12 15 16 13 15 14 15 17 17 17 16 12 5
13 12 12 10 12 19 19 19 21 23 26 26 19 18 17 19 17 13 13 16 18 14 16 15 13 12 11 11 10 9 8 8 7 7 7 9 10 8 8 7 7 7 4 2 13 9 5 7 6 5 3 3 2 2 2 1 1 1 3 3 4 6 5 6 6 7 11 17 18 18 17 15 14 8
12 12 9 9 11 17 20 19 18 21 23 27 19 20 22 20 17 16 14 12 12 12 13 13 12 12 12 12 12 11 10 10 9 9 9 10 9 7 5 5 6 7 4 2 4 6 3 3 5 6 4 4 2 3 2 2 1 1 3 5 6 3 3 4 5 6 6 6 7 9 11 15 16 17
13 10 10 10 12 15 19 21 21 20 22 19 21 24 20 19 18 16 12 11 12 11 12 13 13 13 13 12 13 13 11 11 12 11 9 8 6 5 6 5 3 2 5 4 3 5 3 2 2 5 4 3 2 1 1 2 3 2 3 3 3 4 5 4 3 2 2 3 3 7 10 12 14 14
11 11 10 9 12 14 18 21 22 20 20 19 27 25 21 18 16 13 13 11 12 12 12 14 14 14 14 13 13 13 12 11 12 11 10 10 12 10 7 4 2 7 6 6 6 6 5 4 3 2 4 4 4 4 3 2 2 2 5 3 3 4 3 2 4 3 3 4 6 6 6 4 5 6
11 12 15 16 16 16 17 21 22 20 23 27 26 27 26 20 12 14 13 13 13 14 15 16 15 14 15 15 14 12 12 10 11 11 10 10 10 10 10 7 6 8 5 6 7 6 6 6 5 4 4 3 4 3 3 4 2 2 2 4 5 3 3 3 3 4 5 6 7 5 7 6 3 2
16 17 17 16 16 13 13 13 12 11 15 22 26 28 26 14 15 14 14 13 15 17 16 16 16 15 13 13 13 13 12 12 12 13 11 10 11 11 11 8 7 7 7 8 8 7 6 5 5 5 4 4 5 4 2 2 2 3 3 4 4 4 5 7 8 7 6 5 5 5 5 2 2 2
13 15 14 12 16 16 14 16 17 18 20 18 16 12 12 18 18 17 16 17 17 16 15 14 14 13 12 11 12 14 14 14 12 14 13 12 12 11 12 10 9 7 6 5 6 8 7 7 6 6 6 4 4 5 3 3 3 3 5 4 3 6 3 3 4 6 6 7 6 2 2 3 4 4
12 14 14 15 12 10 8 7 5 7 10 15 14 13 16 17 18 20 22 19 15 15 15 14 12 11 12 14 15 14 13 14 12 14 14 13 11 11 11 9 10 8 7 6 4 5 8 8 8 7 8 8 7 5 4 3 4 4 5 4 5 6 6 6 7 6 6 3 2 2 3 4 6 5
8 9 11 13 14 12 11 11 10 11 13 13 14 16 17 17 17 17 15 17 17 15 14 14 14 14 13 13 12 13 12 12 13 13 13 11 10 11 11 12 10 10 9 7 6 5 5 5 7 8 7 6 6 5 4 4 5 4 5 5 5 7 6 7 6 5 3 1 3 4 5 4 5 6
5 8 10 11 12 14 14 14 15 15 14 14 13 13 16 16 16 16 17 16 16 14 15 14 13 13 14 14 13 12 13 10 11 13 14 12 12 12 12 11 10 9 8 8 7 8 6 5 4 3 3 3 4 6 6 6 6 6 6 5 6 7 6 5 6 4 2 2 2 5 5 6 6 6
5 8 10 12 12 13 14 14 16 16 15 16 15 15 16 16 18 18 17 16 15 15 15 15 14 13 14 13 12 13 12 12 11 11 10 11 12 12 12 11 10 9 9 8 6 7 8 6 6 5 3 3 3 4 7 8 7 8 6 6 6 6 6 5 3 1 1 2 2 4 6 6 6 6
5 7 10 11 12 13 14 16 16 16 17 16 16 16 16 18 18 19 20 19 18 16 15 13 12 12 12 11 12 12 12 12 11 11 11 11 12 11 10 10 10 9 8 8 7 6 8 10 8 8 7 6 7 7 7 16 18 9 8 7 6 7 6 3 1 2 2 4 5 6 6 6 6 3
5 6 8 10 11 12 15 16 17 17 16 16 16 17 17 19 20 21 22 21 19 15 12 13 14 15 16 15 15 15 15 15 14 13 12 10 9 9 9 9 10 10 9 8 7 7 6 9 9 9 10 9 8 6 5 0 16 19 9 8 6 5 2 1 2 3 5 5 6 6 6 4 4 5
6 6 7 9 10 12 13 16 17 17 17 16 16 17 19 21 21 23 22 20 18 14 16 19 18 18 18 17 16 15 14 13 12 12 11 10 10 9 10 10 10 9 8 7 8 7 6 7 10 10 8 6 5 4 3 2 1 3 12 7 7 4 2 2 4 5 5 5 6 6 3 4 5 5
6 8 8 8 10 12 13 15 15 17 17 16 17 19 20 20 20 19 18 19 20 20 20 20 19 19 18 18 16 15 15 14 12 13 12 12 12 11 10 9 9 8 7 6 5 5 6 8 8 7 7 6 6 3 3 1 0 3 4 14 8 5 5 5 6 6 5 5 6 4 4 4 5 8
7 7 9 10 11 11 13 14 15 16 17 17 17 18 18 18 18 17 16 17 18 20 20 21 20 18 17 17 16 15 16 19 18 15 14 13 12 11 11 10 9 9 8 8 8 8 6 7 6 6 6 6 4 4 5 3 1 1 2 7 17 14 10 6 6 5 6 6 4 3 6 4 5 3
9 11 12 12 12 13 14 15 14 15 16 17 17 18 19 19 19 18 18 19 20 20 17 16 16 17 17 18 18 19 17 14 13 14 13 12 12 12 12 11 9 9 9 8 8 8 9 7 7 10 6 4 4 5 2 1 3 3 4 5 11 19 19 13 8 6 6 4 4 6 5 6 5 3
10 12 12 12 13 14 14 15 16 16 16 15 15 16 17 18 19 24 24 23 19 17 16 16 15 15 14 14 14 15 16 15 14 14 13 12 12 11 12 9 8 8 8 8 8 6 5 5 8 9 6 6 6 4 5 5 4 3 3 6 3 8 16 18 17 12 9 7 5 5 4 4 2 3
10 11 12 13 13 14 14 15 15 15 15 14 15 16 16 18 19 20 15 16 18 20 20 18 19 18 15 13 13 13 14 13 12 13 13 12 13 12 11 10 9 9 8 6 6 7 7 6 6 7 6 6 5 5 6 4 3 3 5 4 6 4 3 10 13 16 18 17 13 11 7 4 2 3
9 11 12 13 13 13 13 12 13 13 14 14 14 15 16 16 17 15 18 18 17 13 12 17 20 17 17 17 16 15 13 13 13 13 12 12 11 10 11 10 9 8 7 7 7 7 7 6 6 6 7 5 5 5 4 3 4 4 6 6 2 1 4 3 5 9 9 9 14 15 16 7 7 6
9 10 11 11 12 13 13 14 12 11 11 12 12 14 13 8 10 15 9 3 4 6 14 17 14 14 15 14 16 15 13 13 12 11 11 10 10 10 11 11 9 8 7 7 7 6 7 7 5 5 4 4 4 5 4 4 5 4 3 2 4 4 5 4 3 2 4 4 9 16 13 9 11 10
Wind_Direction
199 198 210 213 232 254 296 276 206 196 201 48 117 135 164 170 179 199 195 206 199 204 218 191 214 169 166 174 165 177 185 168 171 187 204 216 190 205 211 213 213 216 220 228 231 234 237 241 242 246 249 253 254 260 266 269 273 272 270 270 273 275 277 279 275 276 278 276 278 284 289 291 293 296
197 196 201 207 222 227 248 255 251 149 148 113 88 115 141 164 195 215 191 235 223 220 212 205 171 161 167 161 171 178 190 166 173 182 204 215 224 196 203 206 209 212 216 223 227 230 236 238 239 241 246 250 254 260 261 260 261 262 262 266 271 275 277 276 271 271 270 269 270 272 279 288 293 298
198 197 204 196 207 209 226 250 222 195 152 150 163 180 201 179 192 210 209 202 257 206 217 236 136 151 167 164 176 186 206 173 180 193 206 217 197 185 195 200 205 208 212 219 222 228 232 236 236 237 239 235 235 242 244 250 254 257 264 268 272 274 276 277 278 275 273 274 276 277 279 276 281 287
195 199 205 199 194 199 208 236 227 197 164 165 177 185 195 200 193 193 215 213 251 222 224 223 151 154 169 181 179 192 191 173 183 197 199 168 150 166 184 198 201 206 210 211 215 219 223 225 226 226 220 219 228 234 240 244 250 254 261 268 275 283 287 293 286 280 281 284 285 284 282 283 282 282
198 197 202 206 197 187 199 213 226 221 177 169 179 194 190 201 196 194 202 212 237 276 250 258 157 182 163 196 196 180 185 168 192 194 181 148 173 174 188 190 203 205 206 207 210 213 216 217 219 222 219 223 235 243 246 246 245 249 258 271 281 275 281 288 286 284 284 283 284 284 283 282 280 280
202 194 199 204 202 191 198 203 208 220 208 180 184 198 199 197 202 196 194 213 214 233 253 265 267 186 176 182 197 181 187 173 182 189 186 168 184 191 200 189 198 205 206 206 206 210 212 214 217 221 222 220 230 237 248 251 254 260 257 254 257 260 267 277 276 276 274 276 282 288 290 291 290 288
198 197 197 202 200 196 199 203 207 209 222 200 191 197 200 203 203 198 198 194 213 223 232 209 218 226 221 186 181 201 190 179 174 190 192 195 199 209 210 210 214 199 205 202 201 206 209 212 219 222 221 225 232 238 244 251 253 252 255 251 251 256 259 260 260 272 280 284 285 284 284 282 286 291
201 202 198 201 201 201 200 201 204 209 211 213 191 196 197 202 203 199 194 203 205 208 225 219 215 204 205 217 172 193 193 198 185 187 199 199 205 209 210 208 243 194 199 200 200 202 205 212 220 223 223 225 230 230 234 238 237 235 241 247 247 247 252 259 268 272 273 270 263 264 263 263 264 270
206 205 204 199 198 199 202 199 203 206 208 211 204 196 199 198 202 204 194 198 202 210 213 223 218 212 198 195 195 188 184 195 204 207 208 196 198 214 218 218 221 191 195 198 197 199 205 213 223 227 226 231 232 227 226 232 236 236 239 241 240 242 247 255 258 259 259 259 258 257 251 251 251 247
206 210 207 203 199 200 201 201 201 202 209 207 208 205 198 198 199 205 203 191 198 205 218 213 225 217 209 197 203 194 194 188 201 214 221 219 209 195 208 224 237 135 165 162 191 206 210 217 227 227 229 230 226 223 225 228 234 239 242 242 246 250 259 266 267 264 257 256 257 259 261 250 246 245
206 209 208 206 203 203 203 202 199 199 203 206 207 205 200 195 200 202 207 199 194 199 209 218 221 233 223 203 208 196 187 204 197 196 206 226 219 215 202 211 227 161 181 194 189 193 196 208 212 223 230 231 227 228 226 229 234 237 240 244 245 245 249 256 261 261 263 261 256 258 259 263 262 258
209 208 209 210 207 205 205 204 200 197 200 203 207 203 200 197 197 202 201 205 203 199 202 207 212 217 226 216 214 187 182 205 224 212 194 208 213 219 215 210 208 186 173 187 201 209 208 216 220 215 217 222 225 228 228 230 234 235 239 241 241 242 239 238 239 243 252 257 258 255 252 251 254 259
210 211 212 211 210 206 207 205 203 199 195 196 202 200 198 198 198 199 201 200 203 208 205 209 205 207 214 219 199 204 202 205 211 203 210 226 210 207 216 225 206 199 183 190 204 196 195 204 213 196 205 218 223 233 228 232 231 233 237 240 236 231 232 231 227 235 241 248 254 256 258 261 265 275
211 214 214 215 211 207 205 206 205 202 197 199 199 197 194 197 197 199 199 200 202 201 207 209 202 211 211 210 209 208 211 199 192 206 201 220 226 214 220 221 210 193 205 211 217 189 191 205 200 183 202 220 217 225 217 223 222 223 221 231 222 215 220 218 225 235 247 250 253 258 262 268 275 278
211 215 216 217 210 209 205 205 203 203 201 200 202 198 198 197 196 195 198 206 199 200 208 204 208 212 214 213 210 212 206 199 195 202 202 207 206 217 218 229 179 199 178 208 210 225 211 196 211 201 206 221 220 204 211 216 222 216 215 216 196 197 201 208 223 237 247 255 260 266 268 269 271 271
213 214 215 215 216 208 207 202 202 204 203 201 202 202 199 201 203 201 196 196 200 202 203 206 209 210 212 209 208 209 204 203 197 192 195 200 202 211 216 221 219 189 179 194 206 229 202 204 220 221 225 231 228 234 185 184 186 193 191 180 184 189 197 212 223 233 242 252 261 264 270 271 273 273
212 215 216 218 214 217 201 202 202 201 205 203 201 203 203 204 202 205 206 203 203 197 204 207 209 208 203 207 207 205 206 190 196 187 196 200 202 203 215 218 213 181 181 179 198 216 208 198 210 227 237 233 224 148 151 157 167 175 177 181 181 187 199 209 218 228 236 246 252 256 261 263 263 263
215 213 216 217 218 216 202 201 203 202 202 200 198 201 205 208 208 206 206 206 205 204 208 205 213 207 204 210 202 200 201 199 192 188 196 192 194 200 212 207 203 166 175 184 180 217 219 206 222 231 236 212 210 160 175 172 175 178 180 180 182 190 200 208 218 226 237 245 250 254 255 256 258 260
214 216 215 216 219 216 212 201 203 200 202 201 202 204 207 210 209 207 207 205 204 205 212 210 212 206 206 211 204 199 196 205 193 186 190 187 191 188 183 204 195 165 186 171 172 218 204 207 227 243 248 226 199 134 171 173 181 182 179 180 188 194 203 212 221 228 237 245 250 257 260 262 264 265
217 218 216 216 217 215 216 206 199 200 197 201 203 206 210 214 217 216 213 208 204 207 210 212 210 206 209 206 207 201 196 195 184 165 158 161 163 171 175 201 198 200 183 185 181 201 215 214 226 225 206 130 138 151 160 189 182 181 186 191 193 200 208 217 221 226 233 240 246 253 258 261 264 268
219 217 216 215 215 214 217 204 193 199 189 200 205 208 210 214 217 223 218 212 209 212 215 211 209 209 202 182 193 211 202 183 171 157 168 178 165 165 190 200 211 218 188 187 189 189 219 214 220 231 213 144 148 138 157 166 200 194 191 190 198 206 215 220 223 226 232 239 244 249 254 258 260 264
226 223 217 215 216 215 214 201 191 193 190 198 204 209 212 215 220 222 218 211 210 215 216 214 211 202 188 191 187 190 208 188 168 173 188 182 176 189 189 203 207 224 222 200 182 186 217 191 211 194 179 139 159 199 232 227 175 188 193 204 207 213 219 225 228 229 233 239 244 248 251 255 261 271
233 231 222 216 218 218 212 195 191 190 190 202 203 202 208 216 219 217 207 209 201 201 199 213 210 213 195 184 186 197 194 192 183 184 183 177 188 200 194 199 198 232 234 213 174 194 206 199 202 159 157 217 225 199 184 139 146 181 197 214 225 229 228 233 235 237 241 245 249 250 251 254 258 266
234 234 233 217 218 220 213 197 193 191 194 201 203 201 209 215 221 211 207 209 204 198 202 208 205 209 195 200 200 188 186 202 197 187 176 178 188 207 196 192 193 217 228 219 173 193 188 189 189 176 177 171 206 217 110 117 184 184 184 195 203 225 228 236 243 245 245 248 251 253 255 255 250 250
237 238 234 243 211 215 216 205 198 196 199 202 204 206 212 214 214 197 211 211 200 196 198 200 197 200 195 198 201 194 191 193 198 190 179 186 196 199 201 201 202 216 237 205 181 172 183 181 174 164 160 155 173 193 207 192 180 212 243 240 249 251 210 213 218 235 234 241 245 250 257 260 257 228
238 239 239 237 222 208 215 214 206 205 203 206 209 215 216 212 198 200 208 205 199 194 193 194 192 194 194 195 194 193 188 192 188 189 191 198 200 208 222 203 196 216 176 230 125 171 126 158 158 153 150 160 184 181 223 220 203 266 278 259 240 243 242 252 226 226 219 211 226 240 244 250 247 238
239 241 243 242 234 208 211 213 213 208 207 206 215 220 214 208 200 199 205 202 195 190 189 191 193 191 191 189 194 197 191 188 188 190 193 187 184 196 217 217 219 177 154 146 116 108 129 135 166 147 161 139 154 168 187 240 263 240 259 258 261 254 241 235 244 262 281 291 275 267 245 242 247 247
242 243 242 238 232 213 210 215 216 209 204 209 216 219 215 206 197 200 205 199 198 191 189 196 195 191 190 190 190 193 193 183 183 187 188 179 192 198 198 191 133 132 147 141 120 135 134 146 129 116 118 151 157 189 226 215 245 272 271 269 274 280 288 303 299 289 272 270 269 255 259 269 240 234
244 241 233 229 230 222 211 212 214 213 212 212 212 213 213 206 196 204 205 202 195 197 199 200 197 192 191 191 189 180 178 182 173 177 185 185 186 187 193 186 147 151 149 154 150 154 151 145 148 136 144 150 169 192 185 231 223 267 296 308 294 279 284 277 275 283 277 264 248 251 258 251 263 259
257 246 240 237 240 233 220 214 204 165 212 220 218 214 210 202 208 208 208 205 202 207 204 201 198 196 186 186 180 172 175 184 182 177 176 176 187 184 182 165 149 154 157 162 166 158 148 142 145 144 164 181 175 192 195 236 273 249 245 241 256 295 272 266 262 253 252 252 256 259 247 248 265 315
284 284 279 262 256 251 227 216 213 212 214 213 218 226 214 211 213 212 210 209 208 207 204 202 202 197 188 174 168 179 184 189 180 175 175 179 181 174 166 159 152 156 165 152 158 156 156 155 165 172 178 190 175 191 197 179 235 261 264 260 261 255 262 282 290 279 269 260 254 252 292 316 313 299
264 267 273 279 284 281 278 247 266 244 227 217 215 213 215 218 219 218 215 215 213 208 206 203 196 191 184 184 184 181 185 188 175 172 173 172 169 157 154 151 164 161 160 165 178 171 163 171 178 184 186 180 193 188 171 188 218 241 257 254 253 259 254 250 253 249 239 244 275 285 277 278 277 271
293 276 258 257 260 261 255 254 239 237 234 233 224 219 219 222 222 220 216 217 215 206 199 201 193 191 185 187 183 184 185 179 172 167 166 166 153 155 160 170 164 165 165 175 184 199 187 182 181 185 185 179 174 167 163 206 233 225 244 256 256 253 250 245 242 252 255 245 267 275 282 268 259 259
289 270 268 258 255 252 246 243 241 237 236 236 228 225 224 223 223 223 222 220 216 205 203 198 192 189 188 184 180 179 180 167 166 170 165 163 155 156 165 165 169 162 162 166 180 196 192 194 165 164 148 156 167 175 176 199 236 240 233 242 242 254 249 253 247 244 234 231 273 294 283 274 260 252
253 259 249 255 250 252 252 251 246 241 237 232 227 223 219 219 221 223 224 221 216 210 203 197 190 187 187 186 181 173 168 166 163 166 165 157 161 163 164 160 161 162 163 174 181 175 170 183 163 164 159 171 202 252 207 200 217 232 229 231 245 250 254 232 236 261 337 303 286 279 276 267 266 258
243 252 262 263 259 254 254 250 249 246 240 235 231 228 222 219 216 216 219 213 210 207 199 186 182 181 191 183 176 172 170 162 166 168 169 167 166 164 164 162 157 161 160 174 192 178 160 180 172 176 188 200 207 224 234 213 212 213 208 221 223 234 222 219 239 245 260 265 249 249 259 268 269 276
244 240 246 261 265 262 257 256 254 251 245 240 236 232 225 222 219 215 215 208 209 202 188 174 187 183 182 178 179 176 166 167 169 173 172 168 158 157 160 162 162 164 166 172 177 194 164 174 183 183 190 200 205 224 246 208 218 214 187 208 229 212 209 209 234 266 248 239 256 243 246 262 284 286
252 253 244 253 260 265 268 269 266 260 253 244 239 235 233 231 226 219 211 206 203 186 185 191 189 182 180 178 175 173 168 168 156 154 157 163 166 166 166 165 165 165 166 153 169 182 188 182 184 193 189 194 191 222 251 246 53 251 210 201 218 240 199 231 248 245 257 242 242 247 249 274 271 272
240 260 251 246 254 261 262 266 266 267 264 254 243 239 237 236 233 227 215 209 200 192 190 189 184 184 179 175 170 165 157 152 156 160 164 166 166 171 166 163 161 163 158 168 169 193 191 193 185 185 175 180 197 199 194 192 154 46 200 205 217 247 256 236 250 250 252 261 261 261 259 241 258 266
254 242 262 272 269 262 262 267 267 266 267 261 255 250 248 245 240 236 227 215 204 195 191 187 180 177 175 168 160 157 157 163 164 165 166 161 161 168 168 169 164 161 167 177 192 205 192 185 172 170 163 172 154 141 125 163 209 187 186 205 210 213 233 221 226 237 253 241 251 274 280 289 283 280
305 299 294 284 279 273 268 264 260 261 261 263 262 257 249 246 240 232 222 209 200 198 194 182 170 168 171 166 162 162 160 159 158 158 156 153 154 161 165 167 171 168 167 182 192 198 200 187 171 161 152 140 131 94 135 222 278 304 293 270 231 218 221 218 220 220 238 244 251 256 275 275 273 274
315 311 301 296 291 285 274 266 263 259 259 258 259 264 264 254 247 236 222 213 206 196 180 169 163 160 160 160 157 152 149 151 149 145 145 150 153 159 166 166 173 172 176 187 192 178 157 147 161 161 161 136 128 152 203 199 230 253 248 249 255 208 215 223 225 225 229 237 245 264 266 285 292 301
320 316 315 313 309 297 285 275 268 261 257 252 251 252 257 259 255 244 232 218 195 184 175 169 162 155 150 149 146 142 137 137 136 137 141 150 161 165 167 178 184 181 179 171 149 135 127 137 139 148 154 156 167 161 198 203 210 232 255 263 269 257 203 222 224 231 236 239 234 230 230 242 305 269
322 323 322 318 315 313 309 302 287 271 258 253 246 244 247 253 254 243 219 191 181 181 176 164 155 148 145 143 140 131 133 135 138 143 149 153 155 166 175 179 183 174 159 146 131 127 130 139 142 148 148 174 163 164 195 199 224 236 247 239 241 320 294 275 246 240 253 255 259 257 256 239 208 221
319 323 321 323 322 323 320 316 318 307 290 276 268 260 245 239 260 236 194 140 124 144 148 142 118 111 122 125 122 127 130 138 141 147 152 153 165 168 171 174 167 151 141 137 134 139 139 148 158 147 158 169 178 185 196 195 220 231 240 280 290 273 251 245 220 179 201 229 233 236 238 197 215 223